TimeCDT,TemperatureF,Dew PointF,Humidity,Sea Level PressureIn,VisibilityMPH,Wind Direction,Wind SpeedMPH,Gust SpeedMPH,PrecipitationIn,Events,Conditions,WindDirDegrees,DateUTC
12:15 AM,23.0,19.4,86,30.29,10.0,Calm,Calm,-,N/A,,Clear,0,2013-03-29 05:15:00
12:35 AM,21.2,19.4,93,30.29,10.0,Calm,Calm,-,N/A,,Clear,0,2013-03-29 05:35:00
12:55 AM,21.2,21.2,100,30.29,10.0,Calm,Calm,-,N/A,,Clear,0,2013-03-29 05:55:00
1:15 AM,21.2,21.2,100,30.30,10.0,Calm,Calm,-,N/A,,Clear,0,2013-03-29 06:15:00
1:35 AM,21.2,21.2,100,30.30,10.0,Calm,Calm,-,N/A,,Clear,0,2013-03-29 06:35:00
2:15 AM,19.4,19.4,100,30.30,10.0,Calm,Calm,-,N/A,,Clear,0,2013-03-29 07:15:00
2:35 AM,19.4,19.4,100,30.30,10.0,Calm,Calm,-,N/A,,Clear,0,2013-03-29 07:35:00
2:55 AM,19.4,19.4,100,30.30,10.0,Calm,Calm,-,N/A,,Clear,0,2013-03-29 07:55:00
3:15 AM,17.6,17.6,100,30.30,10.0,Calm,Calm,-,N/A,,Clear,0,2013-03-29 08:15:00
3:55 AM,17.6,17.6,100,30.30,10.0,Calm,Calm,-,N/A,,Clear,0,2013-03-29 08:55:00
4:15 AM,17.6,17.6,100,30.30,10.0,Calm,Calm,-,N/A,,Clear,0,2013-03-29 09:15:00
4:35 AM,17.6,17.6,100,30.30,10.0,Calm,Calm,-,N/A,,Clear,0,2013-03-29 09:35:00
4:55 AM,17.6,17.6,100,30.30,10.0,Calm,Calm,-,N/A,,Clear,0,2013-03-29 09:55:00
5:15 AM,15.8,15.8,100,30.30,10.0,Calm,Calm,-,N/A,,Clear,0,2013-03-29 10:15:00
5:35 AM,15.8,14.0,93,30.30,10.0,Calm,Calm,-,N/A,,Clear,0,2013-03-29 10:35:00
5:55 AM,14.0,14.0,100,30.30,10.0,Calm,Calm,-,N/A,,Clear,0,2013-03-29 10:55:00
6:15 AM,14.0,14.0,100,30.30,10.0,Calm,Calm,-,N/A,,Clear,0,2013-03-29 11:15:00
6:35 AM,14.0,14.0,100,30.30,10.0,Calm,Calm,-,N/A,,Clear,0,2013-03-29 11:35:00
6:55 AM,14.0,14.0,100,30.30,10.0,Calm,Calm,-,N/A,,Clear,0,2013-03-29 11:55:00
7:15 AM,14.0,14.0,100,30.31,10.0,Calm,Calm,-,N/A,,Clear,0,2013-03-29 12:15:00
7:35 AM,14.0,14.0,100,30.31,10.0,Calm,Calm,-,N/A,,Clear,0,2013-03-29 12:35:00
7:55 AM,15.8,15.8,100,30.31,10.0,Calm,Calm,-,N/A,,Clear,0,2013-03-29 12:55:00
8:15 AM,19.4,17.6,93,30.32,10.0,Calm,Calm,-,N/A,,Clear,0,2013-03-29 13:15:00
8:35 AM,23.0,21.2,93,30.32,10.0,Calm,Calm,-,N/A,,Clear,0,2013-03-29 13:35:00
8:55 AM,23.0,23.0,100,30.32,10.0,Calm,Calm,-,N/A,,Clear,0,2013-03-29 13:55:00
9:15 AM,26.6,23.0,86,30.32,10.0,Calm,Calm,-,N/A,,Clear,0,2013-03-29 14:15:00
9:35 AM,28.4,21.2,74,30.32,10.0,Calm,Calm,-,N/A,,Clear,0,2013-03-29 14:35:00
9:55 AM,30.2,23.0,75,30.32,10.0,Calm,Calm,-,N/A,,Clear,0,2013-03-29 14:55:00
10:15 AM,32.0,23.0,69,30.32,10.0,West,4.6,-,N/A,,Clear,280,2013-03-29 15:15:00
10:35 AM,33.8,23.0,65,30.32,10.0,Calm,Calm,-,N/A,,Clear,0,2013-03-29 15:35:00
10:55 AM,37.4,21.2,52,30.31,10.0,Calm,Calm,-,N/A,,Clear,0,2013-03-29 15:55:00
11:15 AM,37.4,19.4,48,30.32,10.0,Calm,Calm,-,N/A,,Clear,0,2013-03-29 16:15:00
11:35 AM,41.0,21.2,45,30.31,10.0,Calm,Calm,-,N/A,,Scattered Clouds,0,2013-03-29 16:35:00
11:55 AM,42.8,19.4,39,30.30,10.0,WNW,3.5,-,N/A,,Mostly Cloudy,300,2013-03-29 16:55:00
12:15 PM,42.8,21.2,42,30.29,10.0,NW,3.5,-,N/A,,Scattered Clouds,310,2013-03-29 17:15:00
12:35 PM,46.4,14.0,27,30.28,10.0,SSE,3.5,-,N/A,,Clear,160,2013-03-29 17:35:00
12:55 PM,46.4,15.8,29,30.28,10.0,SE,3.5,-,N/A,,Clear,140,2013-03-29 17:55:00
1:15 PM,46.4,17.6,32,30.27,10.0,SE,4.6,-,N/A,,Clear,130,2013-03-29 18:15:00
1:35 PM,48.2,17.6,30,30.26,10.0,SE,4.6,-,N/A,,Clear,140,2013-03-29 18:35:00
1:55 PM,46.4,19.4,34,30.26,10.0,WSW,8.1,-,N/A,,Clear,250,2013-03-29 18:55:00
2:15 PM,46.4,17.6,32,30.26,10.0,Calm,Calm,-,N/A,,Clear,0,2013-03-29 19:15:00
2:35 PM,48.2,17.6,30,30.25,10.0,WSW,4.6,-,N/A,,Clear,250,2013-03-29 19:35:00
2:55 PM,46.4,19.4,34,30.24,10.0,SW,6.9,-,N/A,,Clear,230,2013-03-29 19:55:00
3:15 PM,50.0,19.4,30,30.24,10.0,West,3.5,-,N/A,,Clear,280,2013-03-29 20:15:00
3:35 PM,46.4,21.2,37,30.23,10.0,West,4.6,-,N/A,,Clear,270,2013-03-29 20:35:00
3:55 PM,46.4,21.2,37,30.23,10.0,West,6.9,-,N/A,,Clear,280,2013-03-29 20:55:00
4:15 PM,48.2,17.6,30,30.22,10.0,West,6.9,-,N/A,,Clear,260,2013-03-29 21:15:00
4:35 PM,46.4,19.4,34,30.22,10.0,West,8.1,-,N/A,,Scattered Clouds,270,2013-03-29 21:35:00
4:55 PM,48.2,19.4,32,30.21,10.0,WSW,5.8,-,N/A,,Overcast,250,2013-03-29 21:55:00
5:15 PM,46.4,21.2,37,30.21,10.0,WSW,4.6,-,N/A,,Mostly Cloudy,250,2013-03-29 22:15:00
5:35 PM,48.2,19.4,32,30.21,10.0,SW,4.6,-,N/A,,Overcast,230,2013-03-29 22:35:00
5:55 PM,46.4,21.2,37,30.20,10.0,WSW,4.6,-,N/A,,Overcast,240,2013-03-29 22:55:00
6:15 PM,46.4,21.2,37,30.20,10.0,Calm,Calm,-,N/A,,Overcast,0,2013-03-29 23:15:00
6:35 PM,46.4,19.4,34,30.20,10.0,SW,3.5,-,N/A,,Overcast,230,2013-03-29 23:35:00
6:55 PM,46.4,19.4,34,30.20,10.0,Calm,Calm,-,N/A,,Overcast,0,2013-03-29 23:55:00
7:15 PM,46.4,21.2,37,30.19,10.0,Calm,Calm,-,N/A,,Overcast,0,2013-03-30 00:15:00
7:35 PM,42.8,21.2,42,30.19,10.0,Calm,Calm,-,N/A,,Overcast,0,2013-03-30 00:35:00
7:55 PM,39.2,23.0,52,30.18,10.0,Calm,Calm,-,N/A,,Scattered Clouds,0,2013-03-30 00:55:00
8:15 PM,35.6,26.6,70,30.18,10.0,Calm,Calm,-,N/A,,Clear,0,2013-03-30 01:15:00
8:35 PM,33.8,23.0,65,30.18,10.0,SSE,3.5,-,N/A,,Scattered Clouds,150,2013-03-30 01:35:00
8:55 PM,33.8,23.0,65,30.18,10.0,SE,4.6,-,N/A,,Mostly Cloudy,140,2013-03-30 01:55:00
9:15 PM,32.0,26.6,80,30.18,10.0,Calm,Calm,-,N/A,,Mostly Cloudy,0,2013-03-30 02:15:00
9:35 PM,32.0,26.6,80,30.18,10.0,Calm,Calm,-,N/A,,Mostly Cloudy,0,2013-03-30 02:35:00
9:55 PM,32.0,24.8,75,30.18,10.0,Calm,Calm,-,N/A,,Overcast,0,2013-03-30 02:55:00
10:15 PM,32.0,26.6,80,30.18,10.0,Calm,Calm,-,N/A,,Overcast,0,2013-03-30 03:15:00
10:35 PM,32.0,24.8,75,30.18,10.0,Calm,Calm,-,N/A,,Overcast,0,2013-03-30 03:35:00
10:55 PM,32.0,26.6,80,30.18,10.0,Calm,Calm,-,N/A,,Mostly Cloudy,0,2013-03-30 03:55:00
11:15 PM,30.2,24.8,80,30.18,10.0,Calm,Calm,-,N/A,,Mostly Cloudy,0,2013-03-30 04:15:00
11:35 PM,30.2,24.8,80,30.17,10.0,Calm,Calm,-,N/A,,Overcast,0,2013-03-30 04:35:00
11:55 PM,30.2,26.6,86,30.16,10.0,Calm,Calm,-,N/A,,Overcast,0,2013-03-30 04:55:00